Curacao Island, Netherlands

12:26 AM AST on February 24, 2017 (GMT -0400)
Flamingo

Weather History for TNCB - November, 2011

Change the Weather History Date:

Friday, November 4, 2011

  Actual Average Record
Temperature  
Mean Temperature 85 °F -  
Max Temperature 89 °F 86 °F 91 °F (2006)
Min Temperature 81 °F 79 °F 75 °F (2013)
Cooling Degree Days 20    
Growing Degree Days 35 (Base 50)    
Moisture  
Dew Point 78 °F    
Average Humidity 79    
Maximum Humidity 84    
Minimum Humidity 66    
Precipitation  
Precipitation 0.00 in - - ()
Sea Level Pressure  
Sea Level Pressure 29.82 in    
Wind  
Wind Speed 7 mph ()    
Max Wind Speed 17 mph    
Max Gust Speed -    
Visibility 8.0 miles    
Events      
Averages and records for this station are not official NWS values.
T = Trace of Precipitation, MM = Missing Value Source: Averaged Metar Reports

Daily Weather History Graph

Daily Weather History Graph

Search for Another Location

Airport or City:

Trip Planner

Search our weather history database for the weather conditions in past years. The results will help you decide how hot, cold, wet, or windy it might be!

Date:

Astronomy

Nov. 04, 2011 Rise Set
Actual Time 6:26 AM AST 6:06 PM AST
Civil Twilight 6:04 AM AST 6:28 PM AST
Nautical Twilight 5:39 AM AST 6:53 PM AST
Astronomical Twilight 5:14 AM AST 7:18 PM AST
Moon 2:05 PM AST (11/4) 1:32 AM AST (11/4)
Length of Visible Light 12h 23m
Length of Day
11h 39m
Waxing Gibbous, 69% of the Moon is Illuminated
Nov 4
Waxing Gibbous
Nov 10
Full
Nov 18
Last Quarter
Nov 25
New
Dec 2
First Quarter

Hourly Weather History & Observations

Time (AST) Temp. Heat Index Dew Point Humidity Pressure Visibility Wind Dir Wind Speed Gust Speed Precip Events Conditions
12:00 AM 82.4 °F 90.9 °F 77.0 °F 84% 29.83 in - North - - N/A   Unknown
1:00 AM 82.4 °F 90.9 °F 77.0 °F 84% 29.83 in - North - - N/A   Unknown
2:00 AM 82 °F - 76 °F 79%  in - Calm Calm - -   Clear
2:00 AM 82.4 °F 90.9 °F 77.0 °F 84% 29.80 in - Calm Calm - N/A   Unknown
3:00 AM 82.4 °F 90.9 °F 77.0 °F 84% 29.80 in - North - - N/A   Unknown
4:00 AM 82.4 °F 90.9 °F 77.0 °F 84% 29.77 in - North - - N/A   Unknown
5:00 AM 82 °F - 77 °F 80%  in - Calm Calm - -   Clear
5:00 AM 82.4 °F 90.9 °F 77.0 °F 84% 29.80 in - North - - N/A   Unknown
6:00 AM 82.4 °F 90.9 °F 77.0 °F 84% 29.80 in - North - - N/A   Unknown
7:00 AM 82.4 °F 90.9 °F 77.0 °F 84% 29.83 in - North - - N/A   Unknown
8:00 AM 85 °F - 78 °F 75% 29.87 in 12 mi East 12.7 mph - -   Scattered Clouds
8:00 AM 84.2 °F 96.1 °F 78.8 °F 84% 29.86 in 6.2 mi East 12.7 mph - N/A   Partly Cloudy
9:00 AM 86.0 °F 99.3 °F 78.8 °F 79% 29.86 in 6.2 mi East 17.3 mph - N/A   Partly Cloudy
10:00 AM 87.8 °F 102.5 °F 78.8 °F 75% 29.89 in 6.2 mi Calm Calm - N/A   Partly Cloudy
11:00 AM 87 °F - 79 °F 70% 29.89 in 12 mi East 17.3 mph - -   Partly Cloudy
11:00 AM 87.8 °F 102.5 °F 78.8 °F 75% 29.89 in 6.2 mi East 17.3 mph - N/A   Scattered Clouds
12:00 PM 89.6 °F 104.7 °F 78.8 °F 70% 29.86 in 6.2 mi SE 15.0 mph - N/A   Scattered Clouds
1:00 PM 89.6 °F 104.7 °F 78.8 °F 70% 29.83 in - North - - N/A   Unknown
2:00 PM 88 °F - 78 °F 66% 29.81 in 12 mi East 15.0 mph - -   Partly Cloudy
2:00 PM 87.8 °F 102.5 °F 78.8 °F 75% 29.80 in 6.2 mi East 15.0 mph - N/A   Scattered Clouds
3:00 PM 87.8 °F 102.5 °F 78.8 °F 75% 29.77 in - North - - N/A   Unknown
4:00 PM 86.0 °F 96.9 °F 77.0 °F 74% 29.77 in 6.2 mi East 13.8 mph - N/A   Partly Cloudy
5:00 PM 85 °F - 78 °F 73% 29.76 in 12 mi East 15.0 mph - -   Partly Cloudy
5:00 PM 84.2 °F 94.1 °F 77.0 °F 79% 29.74 in 6.2 mi East 15.0 mph - N/A   Partly Cloudy
6:00 PM 84.2 °F 94.1 °F 77.0 °F 79% 29.74 in - North - - N/A   Unknown
7:00 PM 84.2 °F 94.1 °F 77.0 °F 79% 29.77 in - North - - N/A   Unknown
8:00 PM 83 °F - 77 °F 76%  in 6 mi Calm Calm - -   Clear
8:00 PM 82.4 °F 90.9 °F 77.0 °F 84% 29.80 in - North - - N/A   Unknown
9:00 PM 82.4 °F 90.9 °F 77.0 °F 84% 29.83 in - North - - N/A   Unknown
10:00 PM 82.4 °F 90.9 °F 77.0 °F 84% 29.83 in - North - - N/A   Unknown
11:00 PM 82 °F - 77 °F 81%  in - Calm Calm - -   Clear
11:00 PM 82.4 °F 90.9 °F 77.0 °F 84% 29.83 in - North - - N/A   Unknown